Weather History for PAWD - January, 2013

Change the Weather History Date:

Thursday, January 3, 2013

  Actual Average (PANC) Record (PANC)
Temperature  
Mean Temperature 34 °F 18 °F  
Max Temperature 35 °F 24 °F 47 °F (1986)
Min Temperature 33 °F 12 °F -29 °F (1975)
Degree Days  
Heating Degree Days 31    
Month to date heating degree days  
Since 1 July heating degree days  
Cooling Degree Days 0    
Month to date cooling degree days  
Year to date cooling degree days  
Moisture  
Dew Point 33 °F    
Average Humidity 97    
Maximum Humidity 100    
Minimum Humidity 92    
Precipitation  
Precipitation 1.25 in 0.02 in 0.45 in (2007)
Month to date precipitation 0.08  
Year to date precipitation 0.08  
Snow  
Snow 0.00 in 0.40 in 11.20 in (2007)
Month to date snowfall 1.3  
Since 1 July snowfall 39.4  
Snow Depth -    
Sea Level Pressure  
Sea Level Pressure 29.55 in    
Wind  
Wind Speed 3 mph (West)    
Max Wind Speed 16 mph    
Max Gust Speed 20 mph    
Visibility 3 miles    
Events Rain , Snow    
T = Trace of Precipitation, MM = Missing Value Source: NWS Daily Summary

Daily Weather History Graph

Daily Weather History Graph

Search for Another Location

Airport or City:

Trip Planner

Search our weather history database for the weather conditions in past years. The results will help you decide how hot, cold, wet, or windy it might be!

Date:

Astronomy

Jan. 03, 2013 Rise Set
Actual Time 9:59 AM AKST 4:05 PM AKST
Civil Twilight 9:03 AM AKST 5:02 PM AKST
Nautical Twilight 8:06 AM AKST 5:58 PM AKST
Astronomical Twilight 7:15 AM AKST 6:49 PM AKST
Moon No Moon Rise 11:25 AM AKST (1/3)
Length of Visible Light 7h 59m
Length of Day
6h 06m
Waning Gibbous, 64% of the Moon is Illuminated
Jan 3
Waning Gibbous
Jan 4
Last Quarter
Jan 11
New
Jan 18
First Quarter
Jan 26
Full

Hourly Weather History & Observations

Time (AKST) Temp. Windchill Dew Point Humidity Pressure Visibility Wind Dir Wind Speed Gust Speed Precip Events Conditions
12:17 AM 33.8 °F 30.8 °F 33.8 °F 100% 29.58 in 6.0 mi ENE 3.5 mph - 0.03 in Snow Light Snow
12:46 AM 35.6 °F 25.9 °F 33.8 °F 93% 29.58 in 4.0 mi SSW 16.1 mph 19.6 mph 0.09 in Snow Light Snow
12:53 AM 35.1 °F 27.4 °F 33.1 °F 92% 29.58 in 4.0 mi SSW 10.4 mph - 0.12 in Snow Light Snow
1:31 AM 33.8 °F - 32.0 °F 93% 29.58 in 5.0 mi Calm Calm - 0.06 in Snow Light Snow
1:37 AM 33.8 °F 30.8 °F 33.8 °F 100% 29.58 in 2.5 mi NW 3.5 mph - 0.06 in Snow Light Snow
1:48 AM 33.8 °F - 33.8 °F 100% 29.58 in 1.5 mi Calm Calm - 0.06 in Snow Light Snow
1:53 AM 33.1 °F - 33.1 °F 100% 29.58 in 1.2 mi Calm Calm - 0.06 in Snow Light Snow
2:18 AM 33.8 °F - 32.0 °F 93% 29.58 in 1.0 mi Calm Calm - 0.00 in Snow Light Snow
2:29 AM 33.8 °F - 33.8 °F 100% 29.59 in 1.2 mi Calm Calm - 0.00 in Snow Light Snow
2:37 AM 33.8 °F 30.8 °F 32.0 °F 93% 29.58 in 0.8 mi NW 3.5 mph - 0.00 in Snow Light Snow
3:02 AM 33.8 °F 30.8 °F 32.0 °F 93% 29.57 in 2.5 mi NNE 3.5 mph - 0.00 in Snow Light Snow
3:13 AM 33.8 °F - 33.8 °F 100% 29.57 in 1.8 mi Calm Calm - 0.00 in Snow Light Snow
3:40 AM 33.8 °F - 32.0 °F 93% 29.56 in 3.0 mi Calm Calm - 0.01 in Snow Light Snow
3:53 AM 33.1 °F 30.0 °F 32.0 °F 96% 29.57 in 4.0 mi SSE 3.5 mph - 0.02 in Snow Light Snow
4:10 AM 33.8 °F - 33.8 °F 100% 29.56 in 2.0 mi Calm Calm - 0.01 in Snow Light Snow
4:17 AM 33.8 °F - 33.8 °F 100% 29.57 in 1.5 mi Calm Calm - 0.01 in Snow Light Snow
4:53 AM 33.1 °F - 33.1 °F 100% 29.55 in 1.2 mi Calm Calm - 0.03 in Snow Light Snow
5:13 AM 33.8 °F - 32.0 °F 93% 29.55 in 1.5 mi Calm Calm - 0.01 in Snow Light Snow
5:23 AM 33.8 °F 30.8 °F 32.0 °F 93% 29.54 in 3.0 mi SW 3.5 mph - 0.01 in Snow Light Snow
5:53 AM 33.1 °F - 33.1 °F 100% 29.54 in 4.0 mi Calm Calm - 0.04 in Snow Light Snow
6:08 AM 33.8 °F - 32.0 °F 93% 29.53 in 5.0 mi Calm Calm - 0.01 in Snow Light Snow
6:53 AM 33.1 °F 30.0 °F 32.0 °F 96% 29.52 in 5.0 mi NNW 3.5 mph - 0.05 in Rain Light Rain
7:53 AM 35.1 °F 27.4 °F 33.1 °F 92% 29.51 in 6.0 mi NW 10.4 mph - 0.05 in Snow Light Snow
8:53 AM 35.1 °F 29.3 °F 33.1 °F 92% 29.51 in 7.0 mi NNW 6.9 mph - 0.10 in Rain Light Rain
9:29 AM 33.8 °F 30.8 °F 33.8 °F 100% 29.52 in 3.0 mi North 3.5 mph - 0.08 in Snow Light Snow
9:53 AM 35.1 °F 30.1 °F 33.1 °F 92% 29.52 in 3.0 mi NW 5.8 mph - 0.13 in Snow Light Snow
10:06 AM 33.8 °F 29.6 °F 33.8 °F 100% 29.52 in 3.0 mi WNW 4.6 mph - 0.02 in Snow Light Snow
10:53 AM 35.1 °F 32.2 °F 33.1 °F 92% 29.53 in 5.0 mi WNW 3.5 mph - 0.10 in Snow Light Snow
11:22 AM 35.6 °F 32.8 °F 33.8 °F 93% 29.54 in 2.5 mi Variable 3.5 mph - 0.05 in Snow Light Snow
11:38 AM 33.8 °F 30.8 °F 33.8 °F 100% 29.54 in 1.5 mi Variable 3.5 mph - 0.07 in Snow Light Snow
11:53 AM 33.1 °F - 33.1 °F 100% 29.54 in 1.0 mi Calm Calm - 0.09 in Snow Light Snow
12:03 PM 33.8 °F - 33.8 °F 100% 29.54 in 0.8 mi Calm Calm - 0.01 in Snow Light Snow
12:41 PM 33.8 °F - 33.8 °F 100% 29.55 in 1.0 mi Calm Calm - 0.03 in Snow Light Snow
12:49 PM 33.8 °F 30.8 °F 32.0 °F 93% 29.54 in 0.8 mi SW 3.5 mph - 0.04 in Snow Light Snow
12:53 PM 33.1 °F 30.0 °F 32.0 °F 96% 29.55 in 0.8 mi WSW 3.5 mph - 0.04 in Snow Light Snow
1:01 PM 33.8 °F 30.8 °F 32.0 °F 93% 29.55 in 1.0 mi SW 3.5 mph - 0.01 in Snow Light Snow
1:46 PM 33.8 °F - 32.0 °F 93% 29.55 in 1.2 mi Calm Calm - 0.04 in Snow Light Snow
1:53 PM 33.1 °F - 33.1 °F 100% 29.55 in 1.2 mi Calm Calm - 0.04 in Snow Light Snow
1:55 PM 33.8 °F 30.8 °F 33.8 °F 100% 29.54 in 1.0 mi SSE 3.5 mph - 0.00 in Snow Light Snow
2:19 PM 33.8 °F 30.8 °F 32.0 °F 93% 29.54 in 1.5 mi SSE 3.5 mph - 0.02 in Snow Light Snow
2:42 PM 33.8 °F - 33.8 °F 100% 29.54 in 1.0 mi Calm Calm - 0.04 in Snow Light Snow
2:53 PM 33.1 °F - 32.0 °F 96% 29.54 in 1.0 mi Calm Calm - 0.05 in Snow Light Snow
3:05 PM 33.8 °F - 32.0 °F 93% 29.54 in 2.0 mi Calm Calm - 0.01 in Snow Light Snow
3:19 PM 33.8 °F - 33.8 °F 100% 29.54 in 2.5 mi Calm Calm - 0.03 in Snow Light Snow
3:27 PM 33.8 °F - 32.0 °F 93% 29.54 in 3.0 mi Calm Calm - 0.04 in Snow Light Snow
3:42 PM 33.8 °F - 33.8 °F 100% 29.54 in 2.5 mi Calm Calm - 0.05 in Snow Light Snow
3:50 PM 33.8 °F - 33.8 °F 100% 29.54 in 4.0 mi Calm Calm - 0.06 in Snow Light Snow
3:53 PM 33.1 °F - 33.1 °F 100% 29.54 in 4.0 mi Calm Calm - 0.06 in Snow Light Snow
4:53 PM 33.1 °F - 33.1 °F 100% 29.54 in 8.0 mi Calm Calm - 0.05 in Snow Light Snow
5:53 PM 34.0 °F - 33.1 °F 96% 29.54 in 10.0 mi Calm Calm - 0.03 in Rain Light Rain
6:53 PM 34.0 °F 31.0 °F 33.1 °F 96% 29.55 in 10.0 mi Variable 3.5 mph - 0.03 in Rain Light Rain
7:53 PM 33.1 °F 30.0 °F 32.0 °F 96% 29.55 in 5.0 mi SSE 3.5 mph - 0.04 in Snow Light Snow
8:53 PM 33.1 °F - 33.1 °F 100% 29.55 in 7.0 mi Calm Calm - 0.03 in Snow Light Snow
9:53 PM 33.1 °F - 33.1 °F 100% 29.56 in 6.0 mi Calm Calm - 0.03 in Snow Light Snow
10:53 PM 33.1 °F - 32.0 °F 96% 29.57 in 10.0 mi Calm Calm - 0.03 in Rain Light Rain
11:53 PM 33.1 °F - 32.0 °F 96% 29.58 in 6.0 mi Calm Calm - 0.03 in Snow Light Snow